Theta_e
323 323 324 324 326 324 324 324 324 323 323 323 322 322 321 321 323 324 323 323 325 326 326 325 327 325 324 322 320 321 319 317
323 323 324 323 325 322 322 322 322 322 321 320 319 319 320 319 320 323 324 325 325 326 325 326 325 322 322 323 322 320 320 320
321 321 322 321 321 322 321 320 321 322 323 321 321 321 321 319 320 322 324 324 324 324 323 323 324 323 322 322 321 319 320 320
320 320 320 320 319 321 319 320 322 322 323 322 321 320 319 318 317 319 321 323 323 323 323 322 323 323 323 323 323 321 317 319
321 320 319 319 320 322 322 321 321 322 323 321 318 317 314 316 315 317 320 323 323 323 323 323 322 323 324 324 325 322 321 316
320 320 321 320 321 320 322 322 321 322 322 321 319 318 318 317 315 315 319 321 322 323 323 324 323 322 324 324 323 323 322 318
321 322 322 320 322 320 323 322 321 321 322 321 321 319 318 317 315 315 318 318 322 322 323 324 323 325 324 322 323 322 320 318
320 320 319 320 320 320 321 320 320 321 321 321 321 321 319 318 315 315 317 317 318 321 321 322 321 322 324 324 321 320 320 318
320 320 320 319 321 321 320 321 320 321 321 321 321 321 320 320 319 317 316 318 319 321 322 321 321 321 321 320 319 320 319 319
320 321 321 320 320 322 321 321 320 320 320 321 322 322 322 319 320 321 320 319 319 320 321 321 319 319 319 319 319 318 319 319
320 321 321 321 321 322 324 322 321 321 320 320 321 321 322 320 320 319 322 322 321 320 320 321 320 319 319 319 318 319 319 318
319 321 322 322 322 322 322 322 321 322 321 320 320 320 322 322 321 321 321 322 322 320 319 319 319 318 319 319 319 318 317 317
320 320 322 322 322 321 321 322 322 322 323 321 321 321 321 321 321 321 322 321 322 321 320 319 319 319 319 318 317 318 317 315
319 321 321 322 322 322 321 322 322 323 323 323 322 321 321 321 321 322 322 322 321 322 321 319 319 319 318 318 318 317 317 317
315 318 320 322 324 324 323 322 323 322 322 322 322 322 322 322 322 322 322 323 321 321 321 320 320 320 320 319 319 318 318 318
313 313 317 320 323 324 325 324 323 323 321 321 322 323 324 324 323 324 323 323 323 322 322 321 321 321 321 320 320 319 318 319
312 313 313 314 320 322 324 325 325 324 322 320 321 322 323 323 323 324 324 323 323 322 322 321 320 320 309 303 311 318 318 317
311 313 315 315 315 318 318 324 326 325 323 323 322 322 321 322 323 323 322 322 322 322 321 321 320 320 304 301 300 317 318 317
311 313 315 317 318 318 319 320 318 324 324 324 323 323 322 322 322 321 322 322 321 320 320 321 320 320 302 301 298 310 315 316
Wind_Speed
12 11 9 10 7 10 8 7 9 8 6 6 7 9 9 8 9 9 13 9 13 10 10 5 7 5 5 5 5 3 5 4
13 12 10 10 9 11 10 9 10 7 6 7 7 8 9 9 7 12 13 11 12 5 4 5 4 5 5 5 4 4 2 3
14 12 12 11 10 12 11 11 11 8 7 7 5 8 8 11 10 8 11 12 8 7 6 6 5 5 5 4 5 3 2 3
16 14 12 12 12 12 12 12 13 10 10 9 8 8 6 8 11 8 6 13 12 9 8 7 7 5 6 5 6 6 4 3
16 15 15 14 12 12 12 13 13 12 11 11 14 8 10 10 14 8 4 4 12 12 10 10 10 6 7 6 5 5 6 7
17 16 15 14 14 14 12 12 12 12 11 12 11 13 11 9 10 11 5 3 6 7 8 9 10 6 6 7 7 8 8 4
15 16 15 14 14 14 11 14 14 13 12 13 15 16 15 13 13 11 8 6 7 8 6 9 7 7 6 6 6 12 5 6
15 17 16 15 17 15 13 13 13 12 14 13 14 12 14 17 17 14 12 9 8 10 11 9 8 8 6 6 8 5 6 5
16 17 16 16 18 18 16 16 15 15 13 14 12 14 10 11 16 14 12 11 11 12 12 12 11 9 8 7 5 5 5 6
16 17 15 15 16 18 19 19 16 16 15 12 14 14 15 11 13 13 13 13 10 10 11 11 12 13 12 10 8 9 9 10
14 15 16 14 16 15 16 17 19 19 17 15 13 13 13 13 13 16 13 13 14 15 14 15 15 14 13 12 11 12 12 11
14 13 15 13 14 15 14 14 16 18 19 17 17 15 15 15 15 15 16 12 14 15 16 17 16 15 15 14 16 15 15 14
11 12 14 14 14 14 16 15 14 13 17 17 17 17 17 17 16 16 15 17 16 16 16 18 18 18 17 18 17 16 17 18
8 10 10 13 12 13 13 13 14 12 13 16 18 18 18 19 18 17 17 18 19 18 19 19 19 18 18 19 19 19 18 17
3 8 9 11 13 13 13 13 13 14 14 15 16 18 20 18 17 18 18 17 18 19 19 20 19 20 20 20 20 20 20 19
9 8 1 10 10 12 13 13 14 14 14 15 16 16 16 17 18 18 18 19 17 18 18 20 19 19 16 21 21 20 19 19
14 14 14 11 2 11 13 14 14 15 16 16 13 14 16 17 17 18 18 18 19 18 20 20 19 16 20 20 19 17 18 17
15 15 15 16 14 10 10 8 12 15 16 15 15 14 16 16 16 16 19 19 17 20 20 19 20 20 17 17 19 17 16 15
12 11 13 15 17 17 16 14 9 12 14 15 15 14 15 13 15 18 17 15 17 16 17 18 17 17 13 18 17 13 14 16
Wind_Direction
174 155 151 149 156 141 144 147 130 126 115 119 106 122 135 136 149 142 153 193 202 150 204 178 165 167 131 137 150 159 148 160
150 144 139 145 140 147 152 147 139 149 151 137 148 145 141 143 145 156 171 209 193 180 132 128 123 126 124 143 133 152 114 141
144 154 156 160 172 158 158 164 152 160 152 148 150 147 161 154 165 169 183 190 174 162 157 158 140 134 147 160 129 113 120 160
157 167 171 159 182 168 162 168 165 166 162 147 149 141 128 151 171 190 196 187 181 184 168 172 165 158 173 171 148 152 174 216
163 171 172 171 178 170 170 164 173 174 168 151 154 156 159 170 175 187 193 222 180 191 180 181 175 178 172 174 154 179 176 193
168 171 174 170 169 172 173 168 174 177 180 165 162 167 169 171 181 180 189 211 193 200 186 175 178 188 168 161 183 206 204 156
169 163 168 166 161 179 171 175 177 180 184 181 178 175 176 175 180 187 193 195 193 194 178 189 180 177 166 165 191 219 175 159
167 163 172 167 164 170 173 178 185 180 184 191 187 184 180 180 185 192 185 194 196 197 193 200 197 186 168 176 190 188 181 175
166 170 175 172 166 171 181 182 184 187 189 185 193 193 201 184 188 197 202 197 198 199 191 195 196 181 178 178 176 191 181 203
170 170 174 173 173 176 178 177 184 184 192 195 197 198 201 194 192 198 201 198 199 201 197 199 204 196 195 188 192 209 213 218
169 174 171 178 175 176 179 185 186 182 184 192 205 204 197 195 203 203 199 203 199 197 206 199 199 203 203 202 209 216 215 221
165 176 169 175 171 174 184 192 196 181 184 183 196 204 205 204 206 205 209 201 202 205 202 206 207 208 208 213 216 214 219 228
163 172 167 174 178 179 184 191 201 201 179 185 192 198 207 205 205 203 199 210 206 208 206 208 212 213 213 216 220 222 227 234
161 166 179 179 180 184 188 193 200 205 195 187 188 195 202 210 210 209 203 207 210 210 211 214 212 215 215 220 224 228 229 231
133 163 181 184 186 191 191 193 197 204 206 202 198 197 202 206 207 211 215 214 211 211 211 216 213 214 218 219 222 226 229 232
19 27 3 182 187 191 198 196 194 197 211 216 212 206 205 203 209 212 212 215 217 217 214 216 216 219 217 216 217 221 226 231
10 8 353 359 275 193 193 198 196 196 208 218 216 213 207 212 212 211 211 215 216 218 220 222 222 225 225 216 224 231 234 236
11 3 4 357 359 0 352 217 192 197 208 215 218 218 219 213 214 217 221 218 214 219 224 223 226 229 224 217 215 226 234 238
20 3 2 7 8 1 349 345 326 210 205 211 216 220 227 224 213 222 224 222 225 226 227 225 229 233 216 214 207 217 231 237